Nantucket, MA

8:05 PM EST on January 21, 2018 (GMT -0500)
Nantucket Memorial

Weather History for KACK - April, 2014

Change the Weather History Date:

Friday, April 11, 2014

  Actual Average Record
Temperature  
Mean Temperature 48 °F -  
Max Temperature 55 °F 48 °F 69 °F (1955)
Min Temperature 44 °F 33 °F 26 °F (1972)
Degree Days  
Heating Degree Days 16    
Moisture  
Dew Point 41 °F    
Average Humidity 77    
Maximum Humidity 90    
Minimum Humidity 66    
Precipitation  
Precipitation 0.00 in - - ()
Sea Level Pressure  
Sea Level Pressure 30.04 in    
Wind  
Wind Speed 16 mph (SW)    
Max Wind Speed 21 mph    
Max Gust Speed 24 mph    
Visibility 8 miles    
Events      
Averages and records for this station are not official NWS values.
T = Trace of Precipitation, MM = Missing Value Source: NWS Daily Summary

Daily Weather History Graph

Daily Weather History Graph

Search for Another Location

Airport or City:

Trip Planner

Search our weather history database for the weather conditions in past years. The results will help you decide how hot, cold, wet, or windy it might be!

Date:

Astronomy

Apr. 11, 2014 Rise Set
Actual Time 6:07 AM EDT 7:16 PM EDT
Civil Twilight 5:38 AM EDT 7:44 PM EDT
Nautical Twilight 5:04 AM EDT 8:18 PM EDT
Astronomical Twilight 4:29 AM EDT 8:54 PM EDT
Moon 3:51 PM EDT (4/11) 4:02 AM EDT (4/11)
Length of Visible Light 14h 05m
Length of Day
13h 08m
Waxing Gibbous, 87% of the Moon is Illuminated
Apr 11
Waxing Gibbous
Apr 15
Full
Apr 22
Last Quarter
Apr 29
New
May 6
First Quarter

Hourly Weather History & Observations

Time (EDT) Temp. Windchill Dew Point Humidity Pressure Visibility Wind Dir Wind Speed Gust Speed Precip Events Conditions
12:53 AM 46.0 °F 38.8 °F 39.0 °F 76% 30.10 in 10.0 mi South 18.4 mph - N/A   Clear
1:53 AM 46.0 °F 39.0 °F 39.9 °F 79% 30.09 in 10.0 mi South 17.3 mph 24.2 mph N/A   Clear
2:53 AM 46.9 °F - 42.1 °F 83% 30.07 in 10.0 mi SSW 16.1 mph - N/A   Clear
3:53 AM 46.9 °F - 42.1 °F 83% 30.06 in 10.0 mi SSW 15.0 mph - N/A   Clear
4:53 AM 48.0 °F - 41.0 °F 77% 30.04 in 10.0 mi SSW 15.0 mph - N/A   Mostly Cloudy
5:53 AM 48.0 °F - 39.9 °F 74% 30.04 in 10.0 mi SSW 16.1 mph - N/A   Partly Cloudy
6:53 AM 46.9 °F - 41.0 °F 80% 30.05 in 9.0 mi SSW 17.3 mph - N/A   Clear
7:53 AM 50.0 °F - 43.0 °F 77% 30.04 in 8.0 mi SSW 17.3 mph - N/A   Clear
8:53 AM 51.1 °F - 43.0 °F 74% 30.06 in 10.0 mi SW 15.0 mph - N/A   Clear
9:53 AM 52.0 °F - 43.0 °F 71% 30.05 in 10.0 mi SW 15.0 mph - N/A   Clear
10:53 AM 51.1 °F - 42.1 °F 71% 30.06 in 10.0 mi SW 17.3 mph 24.2 mph N/A   Clear
11:53 AM 52.0 °F - 42.1 °F 69% 30.05 in 8.0 mi SW 17.3 mph - N/A   Clear
12:53 PM 53.1 °F - 42.1 °F 66% 30.04 in 8.0 mi SW 18.4 mph - N/A   Clear
1:53 PM 52.0 °F - 41.0 °F 66% 30.03 in 8.0 mi SW 18.4 mph - N/A   Clear
2:53 PM 50.0 °F - 41.0 °F 71% 30.01 in 8.0 mi SW 15.0 mph - N/A   Clear
3:53 PM 50.0 °F - 41.0 °F 71% 30.00 in 7.0 mi SW 20.7 mph 24.2 mph N/A   Clear
4:53 PM 48.9 °F - 41.0 °F 74% 30.00 in 7.0 mi SW 12.7 mph - N/A   Clear
5:53 PM 46.0 °F 41.4 °F 39.9 °F 79% 30.00 in 6.0 mi SSW 9.2 mph - N/A   Haze
6:53 PM 45.0 °F 40.1 °F 39.0 °F 80% 30.02 in 6.0 mi SW 9.2 mph - N/A   Haze
7:53 PM 44.1 °F 39.5 °F 39.0 °F 82% 30.03 in 7.0 mi SSW 8.1 mph - N/A   Clear
8:53 PM 45.0 °F 40.1 °F 41.0 °F 86% 30.05 in 7.0 mi SW 9.2 mph - N/A   Clear
9:53 PM 46.9 °F - 43.0 °F 86% 30.05 in 9.0 mi WSW 13.8 mph - N/A   Clear
10:53 PM 45.0 °F 41.8 °F 41.0 °F 86% 30.05 in 5.0 mi SW 5.8 mph - N/A   Clear
11:53 PM 45.0 °F 42.6 °F 42.1 °F 90% 30.03 in 5.0 mi SSW 4.6 mph - N/A   Clear